Theta_e
319 316 316 318 317 316 316 317 320 319 319 319 319 319 319 317 317 318 317 318 318 318
319 319 318 319 319 317 319 317 319 320 318 318 319 318 319 318 316 314 316 313 311 314
317 317 316 317 316 316 317 320 319 318 319 319 318 318 318 315 315 315 315 315 315 312
316 316 316 315 316 317 319 318 318 318 317 314 313 313 314 313 314 313 312 315 315 314
316 316 316 316 318 318 316 318 318 317 316 312 313 313 312 311 311 312 313 315 315 312
316 316 316 318 320 319 318 318 318 314 313 313 312 312 312 314 315 314 313 313 314 314
316 317 318 319 319 317 317 317 314 315 313 312 312 312 312 314 314 312 311 314 313 315
318 318 319 319 318 318 316 317 315 314 314 312 311 308 312 312 312 313 311 311 311 312
316 317 318 319 319 319 316 316 316 316 314 311 310 302 305 310 309 312 311 306 307 308
315 315 317 318 318 318 316 314 317 315 312 312 312 301 302 306 312 310 309 308 306 306
314 314 316 318 318 318 316 316 317 313 314 313 310 300 301 305 311 309 309 309 307 307
313 315 315 316 317 317 318 316 317 314 315 314 312 299 300 307 313 311 312 312 311 310
314 314 313 315 317 317 317 317 316 314 315 309 314 297 298 305 311 310 310 309 306 301
315 316 317 318 316 317 316 317 317 315 314 316 310 308 298 299 312 309 308 309 310 312
Wind_Speed
13 9 9 10 10 9 9 10 11 11 11 12 11 11 10 9 8 11 9 12 9 7
10 11 10 10 10 9 9 10 11 11 11 12 12 12 12 10 9 9 9 5 7 9
10 10 10 8 9 9 9 10 10 10 11 12 12 11 13 10 9 9 6 6 9 8
10 10 9 9 9 9 10 11 11 12 12 11 11 11 9 10 10 12 8 9 6 7
9 9 9 10 10 11 10 10 12 11 12 11 10 10 10 10 9 11 13 11 8 1
10 10 8 10 11 12 11 12 11 10 11 10 11 11 9 11 11 11 13 14 12 5
10 10 9 10 10 10 11 11 9 9 12 10 11 12 10 12 12 12 12 14 12 12
9 9 10 10 10 9 9 10 9 11 13 11 11 10 12 9 11 10 11 12 13 13
10 9 10 10 10 11 10 10 10 12 11 11 8 12 13 11 10 11 11 9 10 10
9 9 9 10 11 12 9 9 10 12 10 11 11 13 11 11 10 10 11 12 9 9
10 9 9 9 11 10 8 9 9 11 11 8 10 12 10 7 10 10 10 12 10 10
9 9 9 9 10 9 9 8 8 9 12 11 12 12 10 7 7 11 12 11 11 9
8 8 9 9 8 8 7 6 6 9 10 10 12 12 10 8 7 10 10 9 8 10
6 6 7 7 6 7 6 6 6 7 7 11 11 9 11 14 5 6 6 7 7 8
Wind_Direction
6 3 6 9 355 2 353 356 349 347 348 347 342 336 327 312 331 323 322 318 313 312
13 8 4 359 347 360 355 339 357 349 350 342 338 336 332 331 343 319 308 321 305 293
7 6 1 353 360 353 345 348 345 348 342 339 347 344 347 339 329 314 310 295 289 276
11 8 5 4 1 357 355 349 345 356 358 350 5 354 343 344 334 332 314 300 273 274
10 9 14 6 5 3 360 355 11 6 355 22 1 357 347 343 336 332 354 348 354 128
15 17 9 11 10 14 3 11 9 350 11 11 1 355 2 345 359 18 12 17 22 85
15 14 13 11 12 11 14 11 0 352 14 11 15 4 11 12 10 19 23 20 23 26
15 13 11 9 11 21 17 25 2 13 18 15 27 12 3 18 19 18 36 23 37 27
8 15 8 9 13 21 22 21 7 24 7 25 34 359 6 15 25 27 42 42 29 32
12 4 12 14 16 23 30 23 10 21 15 18 31 5 9 8 44 38 35 41 39 39
11 7 10 14 14 20 19 34 17 17 20 25 44 6 359 8 44 48 44 44 41 50
13 12 15 8 11 6 10 37 21 29 9 16 43 12 348 34 55 67 71 66 47 73
17 18 21 7 8 5 355 27 34 37 9 34 48 27 347 347 80 67 75 73 55 32
18 5 16 10 2 6 357 20 34 46 25 51 34 48 358 354 68 77 57 66 67 53